Weather in Kuchasyevo

Russia / Ryazan Oblast     54°06′06″N   41°59′18″E
temp.,
°C
wind,
m/s
gust,
m/s
humid.,
%
clouds,
%
prec.,
mm/h
press.,
hPa
HPBL,
m
9 march, tue
tue900:00−14nw22930 0.0 100820
03:00−15nw23930 0.0 101025
06:00−16nw239743 0.0 101153
09:00−14nnw359563 0.0 1012250
12:00−11nnw3591100 0.0 1013447
15:00−9nw4685100 0.1 1013794
18:00−11nw3893100 0.1 1015281
21:00−15nnw4993100 0.1 1017215
10 march, wed
wed1000:00−19nw359648 0.0 1018104
03:00−20nw379870 0.1 1020203
06:00−22nw3798100 0.1 1022192
09:00−21nw4796100 0.1 1023272
12:00−18nw469199 0.0 1024412
15:00−16nw4687100 0.1 1025657
18:00−19nnw3594100 0.1 1026145
21:00−22nnw339789 0.1 102861
11 march, thu
thu1100:00−24nnw33970 0.0 102945
03:00−25nnw23970 0.0 103126
06:00−25nw23940 0.0 103223
09:00−21nw35900 0.0 1032210
12:00−16wnw36860 0.0 1032344
15:00−13nw36875 0.0 1031480
18:00−16w369484 0.0 1031121
21:00−18wnw349646 0.0 103271
12 march, fri
fri1200:00−19nw23960 0.0 103322
03:00−20w22950 0.0 103320
06:00−21wsw12920 0.0 103420
09:00−16sw23830 0.0 1034162
12:00−11ssw23730 0.0 1034352
15:00−9sw35790 0.0 1033398
18:00−12ssw23910 0.0 103228
21:00−15s37920 0.0 1032133
13 march, sat
sat1300:00−16s410940 0.0 1032230
03:00−16s4109230 0.0 1031252
06:00−15sse41192100 0.0 1030270
09:00−11s61383100 0.0 1028486
12:00−7s71374100 0.0 1027816
15:00−5s71374100 0.0 10261022
18:00−7s71481100 0.0 1024922
21:00−7s6157799 0.0 1024697